STARLINK-34095, 63809

Orbit data source: Space-Track

STARLINK-34095, 63809 is a payload satellite owned by SpaceX/Seattle (US) in LEO that was launched on Sun, 04 May 2025 UTC via an FALCON 9 launch vehicle from the Air Force Eastern Test Range (AFETR). Payload-class satellites include a variety of spacecraft equipped with specific instruments for various scientific and technological missions. These include communications satellites like Starlink; space stations such as the ISS; scientific satellites like the Hubble; Earth observation satellites from companies like Planet Labs, Umbra, and HawkEye 360; GPS; miniature CubeSats for education and research; and military/defense satellites.

Loading next visibility...
Identifier
63809, 2025-092F
Orbit
LEO
Last TLE update
17 hours ago
Origin
Manufacturer
SpaceX/Seattle
Mission
Operational Commercial Communications
Bus & Motor
STARLINK V2MO, Unknown motor
Mass
575 kg wet, ~530 kg dry
Launch date (UTC)
2025-05-04 (2 months ago)
Launch vehicle
FALCON 9
Launch site
Air Force Eastern Test Range (AFETR)
Object type
Payload
Rocket body
Debris
Shape & HBR
Box + 1 Pan, 29 m
Radar Cross Section
41.120 m², Large (>1 m²)

Expand to show TLE details & history

TLE from 17 hours ago
0 STARLINK-34095
1 63809U 25092F   25186.22611201  .00022053  00000-0  80790-3 0  9990
2 63809  43.0018 130.4897 0001930 244.2822 115.7831 15.27605194 10763
Epoch: 2025-07-05T05:25Z
TLE epoch observation values (Epoch: 2025-07-05T05:25:36.077Z)
Latitude
0.00001°
Longitude
125.62219°
Altitude
483.325 km
Speed
7.625 km/s
True Right ascension
08h 41m 57s
True Declination
0° 00' 00"
Sunlit
Object was in daylight at epoch
Visualization orbit readout
Latitude
-35.61912°
Longitude
71.80061°
Altitude
492.331 km
Speed
7.62 km/s
Apparent Right ascension
02h 02m 47s
Apparent Declination
-50° 17' 41"
Sunlit
Object is in daylight
Visualization observer readout
Local Sidereal Time
10:22:13
Azimuth
235.835° WSW
Elevation
-50.688°
Doppler factor
1
Orbital elements
Apogee altitude
486.243 km
Perigee altitude
483.594 km
Semi-major axis
6,863.056 km
Eccentricity
0.00019
Inclination
43.0018°
RAAN
130.4897°
Arg. of periapsis
244.2822°
True anomaly
Unknown
Mean anomaly
115.7831°
Eccentric anomaly
Unknown
Mean motion
3.81739 °/min
Orbital period
94.31 mins
BSTAR
0.0008079
Loading maneuver chart data...
Loading SW <> Apogee altitude chart data...
Loading historical data...
Loading historical data...
Loading historical data...
Loading historical data...
Loading historical data...
Loading historical data...
Loading historical data...

STARLINK-34095 Visibility forecast

Observer location: undefined°, undefined°

Span
Click to sort rows by Start time (UTC) header in descending order
Start Az.
Max El. time (UTC)
Max El. Az.
Max El.
End time (UTC)
End Az.
5 mins2025-07-05 22:52:02.194Z192.162° SSW2025-07-05 22:55:02.194Z138.065° SSE18.799°2025-07-05 22:57:02.194Z101.924° ESE
6 mins2025-07-06 00:31:02.194Z246.352° WSW2025-07-06 00:33:02.194Z226.804° WSW43.7°2025-07-06 00:37:02.194Z72.663° E
6 mins2025-07-06 02:10:02.194Z286.512° WNW2025-07-06 02:12:02.194Z331.311° NNW36.883°2025-07-06 02:16:02.194Z75.065° E
6 mins2025-07-06 03:49:02.194Z290.941° WNW2025-07-06 03:52:02.194Z71.799° E42.502°2025-07-06 03:55:02.194Z101.693° ESE
4 mins2025-07-06 05:29:02.194Z249.161° W2025-07-06 05:30:02.194Z223.006° SW25.921°2025-07-06 05:33:02.194Z155.438° SSE
|